Location: ????????
(55.7667°N, 37.4833°E)
Time: 14:02:38
(UTC+00:00)

Cosmos 2366 rocket - Pass Details

Date: 19 May 2025
Orbit: 954 x 996 km, 82.9° (Epoch: 20 June)

Event Time Altitude Azimuth Distance (km) Brightness Sun altitude
Rises 19:20:55 0° 347° (NNW) 3,731 8.7 -9.7°
Reaches altitude 10° 19:23:29 10° 344° (NNW) 2,777 7.9 -9.9°
Maximum altitude 19:29:44 60° 266° (W) 1,130 4.5 -10.3°
Drops below altitude 10° 19:35:55 10° 188° (S) 2,748 5.9 -10.7°
Enters shadow 19:36:32 - 187° (S) 2,969 6.0 -10.8°
